Weather History for Houlton, ME

Change the Weather History Date:

Sunday, March 30, 2014

  Actual Average Record
Temperature  
Mean Temperature 31 °F 31 °F  
Max Temperature 33 °F 41 °F 72 °F (1962)
Min Temperature 28 °F 21 °F -3 °F (1954)
Degree Days  
Heating Degree Days 34 34  
Month to date heating degree days 1467 1191  
Since 1 July heating degree days 8057 7764  
Cooling Degree Days 0 0  
Month to date cooling degree days 0 0  
Year to date cooling degree days 0 0  
Moisture  
Dew Point 26 °F    
Average Humidity 78    
Maximum Humidity 92    
Minimum Humidity 64    
Precipitation  
Precipitation 0.90 in 0.09 in 1.36 in (1953)
Month to date precipitation 2.48 2.51  
Year to date precipitation 8.06 7.37  
Sea Level Pressure  
Sea Level Pressure 30.05 in    
Wind  
Wind Speed 14 mph (NE)    
Max Wind Speed 21 mph    
Max Gust Speed 31 mph    
Visibility 2 miles    
Events Fog , Snow    
T = Trace of Precipitation, MM = Missing Value Source: NWS Daily Summary

Daily Weather History Graph

Daily Weather History Graph

Search for Another Location

Airport:

Trip Planner

Search our weather history database for the weather conditions in past years. The results will help you decide how hot, cold, wet, or windy it might be!

Date:

Astronomy

Mar. 30, 2014 Rise Set
Actual Time 6:14 AM EDT 6:57 PM EDT
Civil Twilight 5:44 AM EDT 7:27 PM EDT
Nautical Twilight 5:08 AM EDT 8:03 PM EDT
Astronomical Twilight 4:31 AM EDT 8:40 PM EDT
Moon 5:58 AM EDT (3/30) 7:07 PM EDT (3/30)
Length of Visible Light 13h 42m
Length of Day
12h 42m
Waning Crescent, 0% of the Moon is Illuminated
Mar 30
Waning Crescent
Mar 30
New
Apr 7
First Quarter
Apr 15
Full
Apr 22
Last Quarter

Hourly Weather History & Observations

Time (EDT) Temp. Windchill Dew Point Humidity Pressure Visibility Wind Dir Wind Speed Gust Speed Precip Events Conditions
12:53 AM 33.1 °F 24.9 °F 25.0 °F 72% 30.28 in 10.0 mi East 10.4 mph - N/A   Clear
1:53 AM 33.1 °F 25.5 °F 25.0 °F 72% 30.27 in 10.0 mi East 9.2 mph - N/A   Clear
2:53 AM 33.1 °F 26.1 °F 23.0 °F 66% 30.25 in 10.0 mi ENE 8.1 mph - N/A   Clear
3:53 AM 32.0 °F 22.5 °F 23.0 °F 69% 30.24 in 10.0 mi ENE 12.7 mph 18.4 mph N/A   Overcast
4:53 AM 30.9 °F 24.3 °F 24.1 °F 76% 30.21 in 2.5 mi ENE 6.9 mph - 0.00 in Snow Light Snow
5:11 AM 30.0 °F 21.1 °F 25.0 °F 82% 30.19 in 2.0 mi ENE 10.4 mph - 0.00 in Snow Light Snow
5:22 AM 30.0 °F 21.7 °F 25.0 °F 82% 30.19 in 1.5 mi NE 9.2 mph - 0.00 in Snow Light Snow
5:29 AM 30.0 °F 20.0 °F 26.1 °F 85% 30.19 in 1.2 mi ENE 12.7 mph 19.6 mph 0.00 in Snow Light Snow
5:53 AM 30.0 °F 20.5 °F 26.1 °F 85% 30.21 in 1.0 mi NE 11.5 mph - 0.01 in Snow Light Snow
6:08 AM 28.9 °F 18.6 °F 26.1 °F 89% 30.19 in 1.0 mi NE 12.7 mph 20.7 mph 0.00 in Snow Light Snow
6:21 AM 28.9 °F 20.4 °F 26.1 °F 89% 30.19 in 0.8 mi NE 9.2 mph - 0.01 in Snow Light Snow
6:53 AM 28.9 °F 19.2 °F 26.1 °F 89% 30.21 in 0.5 mi NE 11.5 mph - 0.02 in Fog , Snow Snow
7:12 AM 28.9 °F 19.2 °F 26.1 °F 89% 30.19 in 0.2 mi NE 11.5 mph - 0.01 in Fog , Snow Snow
7:53 AM 28.9 °F 17.3 °F 27.0 °F 92% 30.21 in 0.2 mi NE 16.1 mph 20.7 mph 0.05 in Fog , Snow Snow
8:51 AM 28.4 °F 18.5 °F 26.6 °F 93% 30.16 in 0.5 mi NE 11.5 mph - 0.05 in Fog , Snow Snow
8:53 AM 28.0 °F 18.1 °F 26.1 °F 92% 30.18 in 0.5 mi NE 11.5 mph - 0.06 in Fog , Snow Snow
9:09 AM 28.0 °F 15.7 °F 25.0 °F 88% 30.16 in 1.0 mi NE 17.3 mph 24.2 mph 0.00 in Snow Light Snow
9:33 AM 28.0 °F 16.5 °F 25.0 °F 88% 30.16 in 0.8 mi NE 15.0 mph 26.5 mph 0.01 in Snow Light Snow
9:53 AM 28.0 °F 15.7 °F 25.0 °F 88% 30.17 in 0.8 mi ENE 17.3 mph 24.2 mph 0.02 in Snow Light Snow
10:30 AM 28.0 °F 17.0 °F 25.0 °F 88% 30.14 in 1.2 mi NE 13.8 mph 20.7 mph 0.01 in Snow Light Snow
10:53 AM 28.0 °F 15.7 °F 25.0 °F 88% 30.13 in 1.2 mi NE 17.3 mph 25.3 mph 0.02 in Snow Light Snow
11:20 AM 28.9 °F 16.9 °F 25.0 °F 85% 30.09 in 1.8 mi NE 17.3 mph 27.6 mph 0.02 in Snow Light Snow
11:27 AM 28.9 °F 18.2 °F 25.0 °F 85% 30.08 in 2.5 mi NE 13.8 mph 21.9 mph 0.03 in Snow Light Snow
11:34 AM 28.9 °F 18.2 °F 25.0 °F 85% 30.08 in 4.0 mi ENE 13.8 mph 21.9 mph 0.04 in   Overcast
11:53 AM 28.9 °F 17.3 °F 25.0 °F 85% 30.09 in 3.0 mi NE 16.1 mph - 0.06 in   Overcast
12:15 PM 28.9 °F 17.3 °F 25.0 °F 85% 30.05 in 2.0 mi NE 16.1 mph 21.9 mph 0.02 in   Overcast
12:26 PM 28.9 °F 16.9 °F 25.0 °F 85% 30.03 in 1.5 mi NE 17.3 mph 24.2 mph 0.05 in   Overcast
12:53 PM 30.0 °F 18.7 °F 26.1 °F 85% 30.04 in 2.0 mi ENE 16.1 mph 24.2 mph 0.09 in   Overcast
1:07 PM 30.0 °F 17.5 °F 26.1 °F 85% 30.01 in 1.5 mi ENE 19.6 mph 25.3 mph 0.02 in   Overcast
1:31 PM 30.0 °F 19.5 °F 26.1 °F 85% 30.02 in 1.2 mi NE 13.8 mph 23.0 mph 0.07 in   Overcast
1:53 PM 30.0 °F 17.9 °F 26.1 °F 85% 30.02 in 1.2 mi NE 18.4 mph - 0.13 in   Overcast
2:04 PM 30.0 °F 18.7 °F 26.1 °F 85% 30.00 in 1.5 mi NE 16.1 mph 24.2 mph 0.03 in   Overcast
2:21 PM 30.0 °F 19.5 °F 26.1 °F 85% 30.00 in 2.0 mi NE 13.8 mph 23.0 mph 0.06 in   Overcast
2:53 PM 30.0 °F 19.5 °F 26.1 °F 85% 29.99 in 2.0 mi NE 13.8 mph 23.0 mph 0.12 in   Overcast
3:04 PM 30.9 °F 20.2 °F 27.0 °F 85% 29.97 in 1.8 mi NE 15.0 mph 25.3 mph 0.02 in   Overcast
3:12 PM 30.9 °F 20.2 °F 26.1 °F 82% 29.97 in 2.0 mi NE 15.0 mph 24.2 mph 0.04 in   Overcast
3:20 PM 30.9 °F 20.7 °F 27.0 °F 85% 29.97 in 1.5 mi NE 13.8 mph - 0.06 in   Overcast
3:30 PM 30.9 °F 19.8 °F 27.0 °F 85% 29.97 in 1.2 mi NE 16.1 mph 23.0 mph 0.07 in   Overcast
3:43 PM 30.9 °F 20.2 °F 27.0 °F 85% 29.96 in 1.5 mi NE 15.0 mph - 0.08 in Snow Light Snow
3:53 PM 30.9 °F 19.4 °F 27.0 °F 85% 29.97 in 1.5 mi NE 17.3 mph 25.3 mph 0.08 in Snow Light Snow
4:13 PM 30.9 °F 20.2 °F 27.0 °F 85% 29.94 in 1.2 mi NE 15.0 mph 23.0 mph 0.04 in   Overcast
4:33 PM 30.9 °F 18.7 °F 27.0 °F 85% 29.94 in 1.5 mi NE 19.6 mph 28.8 mph 0.05 in Snow Light Snow
4:48 PM 30.2 °F 18.9 °F 26.6 °F 86% 29.95 in 1.2 mi NE 16.1 mph 23.0 mph 0.06 in   Overcast
4:53 PM 30.9 °F 19.8 °F 27.0 °F 85% 29.98 in 1.2 mi NE 16.1 mph 24.2 mph 0.06 in Snow Light Snow
5:28 PM 30.0 °F 19.1 °F 27.0 °F 88% 29.95 in 0.8 mi NNE 15.0 mph - 0.04 in Snow Light Snow
5:53 PM 30.0 °F 18.3 °F 27.0 °F 88% 29.96 in 0.8 mi NNE 17.3 mph - 0.07 in   Mist
6:23 PM 30.0 °F 20.0 °F 27.0 °F 88% 29.96 in 0.5 mi NNE 12.7 mph - 0.03 in Fog , Snow Light Snow
6:53 PM 28.9 °F 18.2 °F 27.0 °F 92% 29.98 in 0.5 mi NNE 13.8 mph - 0.06 in Fog Light Freezing Fog
7:21 PM 28.9 °F 17.7 °F 27.0 °F 92% 29.96 in 1.0 mi NNE 15.0 mph - 0.01 in Snow Light Snow
7:42 PM 28.9 °F 17.7 °F 27.0 °F 92% 29.97 in 0.8 mi NNE 15.0 mph - 0.03 in Snow Light Snow
7:53 PM 28.9 °F 18.2 °F 27.0 °F 92% 29.99 in 1.0 mi NNE 13.8 mph - 0.03 in Snow Light Snow
8:01 PM 28.9 °F 18.2 °F 27.0 °F 92% 29.97 in 0.8 mi NNE 13.8 mph - 0.01 in Snow Light Snow
8:17 PM 28.9 °F 18.2 °F 27.0 °F 92% 29.96 in 1.0 mi NNE 13.8 mph - 0.01 in Snow Light Snow
8:28 PM 28.9 °F 17.3 °F 27.0 °F 92% 29.96 in 0.8 mi NNE 16.1 mph - 0.02 in Snow Light Snow
8:49 PM 28.4 °F 16.6 °F 26.6 °F 93% 29.95 in 1.0 mi NNE 16.1 mph - 0.02 in Snow Light Snow
8:53 PM 28.9 °F 17.3 °F 27.0 °F 92% 29.97 in 1.0 mi NNE 16.1 mph - 0.02 in Snow Light Snow
9:53 PM 28.0 °F 16.1 °F 26.1 °F 92% 29.94 in 1.2 mi NNE 16.1 mph - 0.00 in Snow Light Snow
10:33 PM 28.0 °F 16.1 °F 26.1 °F 92% 29.91 in 1.5 mi NNE 16.1 mph - 0.00 in Snow Light Snow
10:40 PM 28.0 °F 16.1 °F 26.1 °F 92% 29.90 in 1.5 mi NNE 16.1 mph - 0.00 in Snow Light Snow
10:47 PM 28.4 °F 18.0 °F 26.6 °F 93% 29.90 in 1.8 mi NNE 12.7 mph - 0.00 in Snow Light Snow
10:53 PM 28.0 °F 16.5 °F 26.1 °F 92% 29.93 in 2.0 mi NNE 15.0 mph - 0.00 in Snow Light Snow
11:08 PM 28.0 °F 17.5 °F 26.1 °F 92% 29.89 in 4.0 mi NNE 12.7 mph - 0.00 in   Overcast
11:53 PM 28.9 °F 19.2 °F 25.0 °F 85% 29.91 in 9.0 mi NNE 11.5 mph - 0.00 in   Overcast